Location: Newark
(31.5350°N, 35.0986°E)
Time: 07:54:32
(UTC+00:00)

Explorer 7 - Visible Passes

Search period start: 20 September 2019 00:00
Search period end: 30 September 2019 00:00
Orbit: 485 x 680 km, 50.3° (Epoch: 19 September)

Date Brightness Start Highest point End Pass type
(mag) Time Alt. Az. Time Alt. Az. Time Alt. Az.
20 Sep 9.3 01:58:49 10° NNW 02:02:53 25° NNE 02:06:55 10° E visible
21 Sep 10.1 00:26:16 11° NNE 00:26:20 11° NNE 00:27:50 10° NE visible
21 Sep 8.6 02:03:34 10° NNW 02:08:07 37° NE 02:12:37 10° ESE visible
22 Sep 9.9 00:31:49 15° NNE 00:31:49 15° NNE 00:34:31 10° ENE visible
22 Sep 7.8 02:08:23 10° NW 02:13:15 58° NE 02:18:03 10° ESE visible
23 Sep 9.6 00:37:35 20° NE 00:37:35 20° NE 00:40:45 10° ENE visible
23 Sep 7.2 02:13:59 14° NW 02:18:17 85° SW 02:23:10 10° SE visible
24 Sep 9.3 00:43:35 25° ENE 00:43:35 25° ENE 00:46:40 10° E visible
24 Sep 7.4 02:20:00 19° WNW 02:23:15 50° SW 02:27:57 10° SSE visible
24 Sep 8.6 16:17:29 10° SSE 16:19:35 14° SE 16:20:10 13° ESE visible
24 Sep 9.3 17:55:31 10° WSW 17:56:35 18° WSW 17:56:35 18° WSW visible
25 Sep 9.1 00:49:48 27° E 00:49:48 27° E 00:52:17 10° ESE visible
25 Sep 8.1 02:26:13 22° W 02:28:08 29° SW 02:32:19 10° S visible
25 Sep 7.9 16:21:01 10° S 16:24:22 25° SE 16:26:17 18° E visible
25 Sep 9.1 18:00:53 10° WSW 18:02:41 22° W 18:02:41 22° W visible
26 Sep 9.4 00:56:09 19° ESE 00:56:09 19° ESE 00:57:36 10° SE visible
26 Sep 8.8 02:32:35 17° WSW 02:32:57 17° SW 02:36:01 10° SSW visible
26 Sep 7.1 16:25:22 10° SSW 16:29:13 47° SE 16:32:11 17° ENE visible
26 Sep 9.4 18:06:34 10° W 18:08:33 20° WNW 18:08:33 20° WNW visible
27 Sep 9.9 01:02:35 10° SE 01:02:35 10° SE 01:02:37 10° SE visible
27 Sep 6.7 16:30:09 10° SW 16:34:10 89° SE 16:37:51 14° NE visible
27 Sep 9.7 18:12:36 10° WNW 18:14:13 15° NW 18:14:13 15° NW visible
28 Sep 7.6 16:35:18 10° WSW 16:39:13 50° NW 16:43:17 11° NE visible
28 Sep 10.0 18:19:07 10° NW 18:19:39 11° NW 18:19:39 11° NW visible
29 Sep 8.6 16:40:47 10° W 16:44:22 30° NW 16:48:10 10° NNE visible
